Content
SEND FEEDBACK

Daily
Averages
Monthly
Summary
United States of America

KIRKSVILLE, MISSOURI


Home > North America > United States > Missouri
Elevation: 966 feet     Latitude: 40 05N     Longitude: 092 32W

WEATHER
 
SELECT A DAY
Number of Records: 221,268;   Date Range: 1/1/95 - 7/26/14
 
SHARE

PRINT THIS DATA

[ ← Previous Day ]
WEATHER ALMANAC - JANUARY 7, 2013
[ Next Day → ]
[ °C ]   °F
Weather ElementAverageHighLow
Temperature32.4 °F39.9 °F (1:55 pm)21.9 °F (5:55 am)
Dewpoint22.7 °F27 °F (2:55 pm)17.1 °F (5:55 am)
Humidity68.1 %82 % (5:55 am)53 % (1:55 pm)
Barometer30.20 in30.33 in (1:55 am)30.08 in (4:55 pm)
Wind Speed9.7 mph15 mph (9:55 am)
Wind Gust20.7 mph (10:55 am)
Weather ElementAverage
Visibility9.8 mi
Wind DirectionSSW (197.8 °)

Weather ElementTotal
Precipitation---
Heating Degree Days34.1 (Base 65)
Averaged from 23 records on January 7, 2013
WEATHER CONDITIONS BREAKOUT
WIND DIRECTION BREAKOUT
WEATHER BY HOUR - JANUARY 7, 2013
[ °C ]   °F
Local TimeTemperatureDewpointHumidityBarometerVisibilityWind DirectionWind SpeedGust SpeedPrecipitationEventsConditions
1:55 AM24.1 °F19.0 °F81 %30.33 in9.0 miSSW (200°)8.1 mphClear
2:55 AM24.1 °F19.0 °F81 %30.33 in9.0 miSouth (190°)9.2 mphClear
3:55 AM25.0 °F18.0 °F75 %30.32 in10.0 miSSW (200°)8.1 mphClear
4:55 AM24.1 °F18.0 °F77 %30.30 in10.0 miSouth (190°)9.2 mphClear
5:55 AM21.9 °F17.1 °F82 %30.30 in9.0 miSouth (190°)6.9 mphClear
6:55 AM21.9 °F17.1 °F82 %30.30 in9.0 miSouth (190°)8.1 mphClear
7:55 AM24.1 °F18.0 °F77 %30.29 in9.0 miSouth (190°)9.2 mphClear
8:55 AM28.0 °F19.0 °F69 %30.29 in10.0 miSSW (200°)9.2 mphClear
9:55 AM33.1 °F21.0 °F61 %30.28 in10.0 miSSW (210°)15.0 mph18.4 mphClear
10:55 AM36.0 °F23.0 °F59 %30.25 in10.0 miSouth (190°)11.5 mph20.7 mphClear
11:55 AM37.9 °F23.0 °F55 %30.21 in10.0 miSSW (200°)13.8 mph20.7 mphClear
12:55 PM39.2 °F24.8 °F56 %30.13 in10.0 miSSW (200°)11.5 mphClear
1:55 PM39.9 °F24.1 °F53 %30.15 in10.0 miSSW (200°)13.8 mph20.7 mphClear
2:55 PM39.9 °F27.0 °F60 %30.15 in10.0 miSouth (190°)10.4 mphClear
3:55 PM39.0 °F27.0 °F62 %30.13 in10.0 miSouth (190°)12.7 mphClear
4:55 PM37.4 °F26.6 °F65 %30.08 in10.0 miSSW (200°)12.7 mphClear
5:55 PM37.9 °F27.0 °F65 %30.11 in10.0 miSouth (190°)11.5 mphClear
6:55 PM37.9 °F26.1 °F62 %30.12 in10.0 miSSW (200°)9.2 mphClear
7:55 PM36.0 °F26.1 °F67 %30.11 in10.0 miSSW (200°)6.9 mphClear
8:55 PM36.0 °F26.1 °F67 %30.12 in10.0 miSSW (210°)8.1 mphClear
9:55 PM35.1 °F25.0 °F67 %30.12 in10.0 miSSW (210°)5.8 mphClear
10:55 PM33.1 °F25.0 °F72 %30.11 in10.0 miSSW (200°)5.8 mphClear
11:55 PM33.1 °F25.0 °F72 %30.10 in10.0 miSSW (210°)5.8 mphClear
Hourly data recorded from KIRK, located miles away from Kirksville, Missouri







STORIES FROM OUR PARTNERS